Flag for Poland Weather past 2 weeks in Słupsk, Poland

Now
51 °F

Light rain. Passing clouds.


Feels Like: 45 °F
Forecast: 40 / 51 °F
Wind: 22 mph from Southwest

Location: Leba

Current Time: Oct 22, 2014 at 4:03:13 AM

Latest Report: Oct 22, 2014 at 3:00 AM


Visibility: 16 mi

Pressure: 29.54 "Hg

Humidity: 95%

Dew point: 50 °F

Location of SłupskLocation

Historic Weather in Słupsk — Graph

°F

Słupsk temperature yesterday

Maximum temperature yesterday: 56 °F (at 12:00 AM)
Minimum temperature yesterday: 47 °F (at 8:00 AM)
Average temperature yesterday: 53 °F

Past Weeks' High & Low Weather Summary

 TemperatureHumidityPressure
High68 °F (Oct 19, 3:00 PM)98% (Oct 13, 5:00 AM)30.29 "Hg (Oct 13, 5:00 AM)
Low43 °F (Oct 17, 7:00 AM)55% (Oct 8, 2:00 PM)29.54 "Hg (Oct 22, 12:00 AM)
Average55 °F88%29.86 "Hg
* Reported Oct 7 2:00 AM — Oct 22 2:00 AM, Słupsk, Weather by CustomWeather, © 2014

Note: Actual official high and low records may vary slightly from our data, if they occured in-between our weather recording intervals... More about our weather records

Advertising

Słupsk weather history for previous 24 hours

 ConditionsComfort  
Time TempWeatherWind HumidityBarometerVisibility
2:00 AM
Oct 22
52 °FLight rain. Overcast.5 mph93%29.54 "Hg7 mi
1:00 AM51 °FOvercast.5 mph94%29.54 "Hg6 mi
12:00 AM52 °FOvercast.5 mph93%29.54 "Hg9 mi
11:00 PM
Oct 21
52 °FOvercast.5 mph94%29.54 "Hg10 mi
10:00 PM52 °FOvercast.5 mph93%29.55 "Hg12 mi
9:00 PM52 °FOvercast.5 mph92%29.57 "Hg12 mi
8:00 PM52 °FOvercast.5 mph93%29.58 "Hg12 mi
7:00 PM52 °FOvercast.3 mph93%29.60 "Hg12 mi
6:00 PM52 °FOvercast.2 mph92%29.61 "Hg12 mi
5:00 PMN/APassing clouds.52 mphN/AN/A2 mi
4:00 PM54 °FOvercast.2 mph93%29.64 "Hg12 mi
3:00 PM54 °FOvercast.5 mph91%29.65 "Hg12 mi
2:00 PM55 °FOvercast.3 mph93%29.67 "Hg12 mi
1:00 PM53 °FOvercast.5 mph97%29.69 "Hg6 mi
12:00 PM53 °FSprinkles. Overcast.3 mph97%29.70 "Hg2 mi
11:00 AM52 °FSprinkles. Overcast.2 mph97%29.71 "Hg3 mi
10:00 AM51 °FSprinkles. Overcast.2 mph95%29.72 "Hg6 mi
9:00 AM49 °FPartly sunny.1 mph95%29.72 "Hg7 mi
8:00 AM47 °FPartly sunny.1 mph91%29.71 "Hg7 mi
7:00 AM52 °FPassing clouds.3 mph82%29.70 "Hg11 mi
6:00 AM53 °FPassing clouds.5 mph79%29.71 "Hg11 mi
5:00 AM54 °FPassing clouds.6 mph77%29.71 "Hg11 mi
4:00 AM54 °FPassing clouds.6 mph80%29.72 "Hg12 mi
Weather by CustomWeather, © 2014

See weather overviewHow to use our weather pages